AirNav   Air Wisconsin pilot careers
 
 863 users online  

U99 Laidlaw Corrals Airport
Kimama, Idaho, USA

GOING TO KIMAMA?


FAA INFORMATION EFFECTIVE 13 SEPTEMBER 2018

Location

FAA Identifier: U99
Lat/Long: 43-02-13.3000N / 113-44-01.0000W
43-02.221667N / 113-44.016667W
43.0370278 / -113.7336111
(estimated)
Elevation: 4448 ft. / 1356 m (estimated)
Variation: 16E (1985)
From city: 12 miles N of KIMAMA, ID
Time zone: UTC -6 (UTC -7 during Standard Time)
Zip code: 83349

Airport Operations

Airport use: Open to the public
Activation date: 06/1951
Control tower: no
ARTCC: SALT LAKE CITY CENTER
FSS: BOISE FLIGHT SERVICE STATION
NOTAMs facility: BOI (NOTAM-D service available)
Attendance: UNATNDD
Wind indicator: yes
Segmented circle: yes

Airport Communications

CTAF: 122.9

Nearby radio navigation aids

VOR radial/distance  VOR name  Freq  Var
BYIr354/28.0BURLEY VOR/DME114.1018E

 
NDB name  Hdg/Dist  Freq  Var  ID
HAILEY115/28.422013EHLE .... .-.. .

Airport Services

Airframe service: NONE
Powerplant service: NONE
Bottled oxygen: NONE
Bulk oxygen: NONE

Runway Information

Runway 7/25

Dimensions: 2250 x 130 ft. / 686 x 40 m
Surface: turf, in poor condition
SURFACE SUBJECT TO ONGOING DAMAGE BY RODENTS, GROUND VEHICLES AND LIVESTOCK
Runway edge markings: 07/25 EDGES & THRS MARKED WITH WHITE ROCKS.
Gradient: W
RUNWAY 7  RUNWAY 25
Latitude: 43-02.224833N43-02.217167N
Longitude: 113-44.269833W113-43.764833W
Elevation: 4448.0 ft.4427.0 ft.
Gradient: 0.5%0.9% UP
Traffic pattern: leftleft
Obstructions: 16 ft. hill, 600 ft. from runway, 100 ft. right of centerline, 37:1 slope to clear15 ft. road, 80 ft. right of centerline
+15 FT ROAD 30-50 FT L.

Airport Ownership and Management from official FAA records

Ownership: Publicly-owned
Owner: STATE OF ID, ITD DIV OF AERO
P.O. BOX 7129
BOISE, ID 83707-1129
Phone 208-334-8775
Manager: DIV ADMIN
P.O. BOX 7129
BOISE, ID 83707-1129
Phone 208-334-8775

Airport Operational Statistics

Aircraft operations: 100/year *
100% transient general aviation
* for 12-month period ending 02 June 2016

Additional Remarks

NO WINTER MAINTENANCE.

Instrument Procedures

There are no published instrument procedures at U99.

Some nearby airports with instrument procedures:

KBYI - Burley Municipal Airport (30 nm S)
KJER - Jerome County Airport (37 nm SW)
KSUN - Friedman Memorial Airport (37 nm NW)
KAOC - Arco-Butte County Airport (38 nm NE)
KGNG - Gooding Municipal Airport (46 nm W)
 
Loc | Ops | Rwys | IFR | FBO | Links
Com | Nav | Svcs | Stats | Notes


 
Area around U99 (Laidlaw Corrals Airport)
 
Road maps at: MapQuest Bing Google
 
Aerial photo
WARNING: Photo may not be current or correct
Aerial photo of U99 (Laidlaw Corrals Airport)
Photo by Winston Ellis
Photo taken 23-Oct-2016
looking east.

Do you have a better or more recent aerial photo of Laidlaw Corrals Airport that you would like to share? If so, please send us your photo.

 
Sectional chart

 
Airport distance calculator
Flying to Laidlaw Corrals Airport? Find the distance to fly.

From to U99

Sunrise and sunset
Times for 22-Sep-2018
 Local
(UTC-6)
 Zulu
(UTC)
Morning civil twilight06:5512:55
Sunrise07:2313:23
Sunset19:3201:32
Evening civil twilight20:0002:00

Current date and time
Zulu (UTC)  22-Sep-2018 21:40:10
Local (UTC-6)  22-Sep-2018 15:40:10
 
METAR
KBYI 
29nm S 
222053Z AUTO 31007KT 10SM CLR 29/M04 A2998 RMK AO2 SLP115 T02891044 58021
KSUN 
37nm NW 
222047Z 24008KT 10SM SKC 24/M02 A3006
KJER 
37nm SW 
222053Z AUTO 30009KT 10SM CLR 28/M06 A3000 RMK AO2 SLP117 T02781061 58021
KTWF 
47nm SW 
222053Z 32010KT 10SM CLR 27/M02 A2999 RMK AO2 SLP103 T02671022 58021
TAF
KBYI 
29nm S 
221721Z 2218/2318 28009KT P6SM SCT250 FM230300 22006KT P6SM SCT250 FM231500 25010KT P6SM BKN200
NOTAMs
Click for the latest NOTAMs
NOTAMs are issued by the DoD/FAA and will open in a separate window not controlled by AirNav.

 

 
 

Would you like to see your business listed on this page?

 If your business provides an interesting product or service to pilots, flight crews, aircraft, or users of the Laidlaw Corrals Airport, you should consider listing it here.  To start the listing process, click on the button below
 
Add a business
 

Other Pages about Laidlaw Corrals Airport

Update a link
 
Copyright © AirNav, LLC. All rights reserved. Privacy Policy  Contact